GW2451 Weather Reports


time (UTC)temp
F
wind
direction
speed
knots
gust
knots
rain 1hr
in
rain 24hr
in
rain mn
in
humidity
%
barometer
mb
20260503224541 60 271 2.6 6.1 0.00 0.00 0.00 38 1011.6
20260503223046 60 221 1.7 7.8 0.00 0.00 0.00 39 1011.7
20260503221546 60 267 1.7 6.1 0.00 0.00 0.00 39 1011.8
20260503220047 60 248 1.7 7.0 0.00 0.00 0.00 37 1011.8
20260503214547 60 225 3.5 7.0 0.00 0.00 0.00 38 1011.8
20260503213043 60 225 1.7 6.1 0.00 0.00 0.00 39 1011.9
20260503211554 60 266 1.7 8.7 0.00 0.00 0.00 39 1012.0
20260503210046 60 273 3.5 9.6 0.00 0.00 0.00 37 1012.0
20260503204550 60 263 1.7 7.0 0.00 0.00 0.00 38 1012.0
20260503203055 61 316 2.6 7.8 0.00 0.00 0.00 37 1012.0
20260503201547 61 262 2.6 7.0 0.00 0.00 0.00 36 1012.1
20260503200051 61 238 2.6 8.7 0.00 0.00 0.00 35 1012.3
20260503194549 61 264 1.7 8.7 0.00 0.00 0.00 37 1012.6
20260503193047 61 273 2.6 7.0 0.00 0.00 0.00 36 1012.9
20260503191543 62 251 1.7 6.1 0.00 0.00 0.00 38 1013.1
20260503190045 62 267 3.5 7.8 0.00 0.00 0.00 35 1013.3
20260503184545 62 232 2.6 6.1 0.00 0.00 0.00 36 1013.4
20260503183046 62 234 2.6 7.0 0.00 0.00 0.00 39 1013.5
20260503181546 62 258 3.5 8.7 0.00 0.00 0.00 36 1013.7
20260503180054 61 244 2.6 8.7 0.00 0.00 0.00 37 1013.8
20260503174546 61 262 1.7 7.0 0.00 0.00 0.00 40 1014.1
20260503173047 61 298 1.7 7.8 0.00 0.00 0.00 39 1014.4
20260503171545 61 258 2.6 6.1 0.00 0.00 0.00 41 1014.6
20260503081546 34 0 0.0 0.0 0.00 0.06 0.00 88 1016.0
20260503071551 34 0 0.0 0.0 0.00 0.06 0.00 86 1015.9
20260503060109 36 0 0.0 0.0 0.00 0.06 0.00 82 1016.2
20260503054555 36 0 0.0 0.0 0.00 0.06 0.00 81 1016.2
20260503053045 37 0 0.0 0.0 0.00 0.06 0.00 80 1016.2
20260503051543 38 0 0.0 0.0 0.00 0.06 0.00 79 1016.3
20260503050043 38 0 0.0 0.0 0.00 0.06 0.00 78 1016.4
20260503044545 39 0 0.0 0.0 0.00 0.08 0.00 77 1016.5
20260503043050 39 0 0.0 0.0 0.00 0.08 0.00 76 1016.4
20260503041545 40 0 0.0 0.0 0.00 0.08 0.00 76 1016.5
20260503040055 40 0 0.0 0.0 0.00 0.08 0.00 75 1016.5
20260503034547 41 0 0.0 0.0 0.00 0.15 0.08 75 1016.5
20260503033040 41 0 0.0 0.0 0.00 0.15 0.08 75 1016.6
20260503031543 41 0 0.0 0.0 0.00 0.15 0.08 74 1016.6
20260503030045 41 0 0.0 0.0 0.00 0.15 0.08 72 1016.7
20260503024546 41 0 0.0 0.0 0.00 0.15 0.08 72 1016.8
20260503023047 41 0 0.0 0.9 0.00 0.15 0.08 71 1016.8
20260503021551 42 0 0.0 0.0 0.00 0.15 0.08 71 1016.8
20260503020051 42 0 0.0 0.0 0.00 0.15 0.08 70 1016.8
20260503014546 42 0 0.0 0.0 0.00 0.15 0.08 70 1016.8
20260503013044 42 0 0.0 0.0 0.00 0.15 0.08 70 1016.8
20260503011540 43 0 0.0 0.0 0.00 0.15 0.08 69 1016.7
20260503010043 43 0 0.0 0.0 0.00 0.15 0.08 65 1016.7
20260503004556 43 0 0.0 0.0 0.00 0.15 0.08 62 1016.6
20260503003101 44 0 0.0 0.0 0.00 0.15 0.08 59 1016.5
20260503001626 44 0 0.0 0.0 0.00 0.15 0.08 57 1016.6
20260503000059 44 0 0.0 0.0 0.00 0.15 0.08 57 1016.5
20260502234543 44 0 0.0 0.9 0.00 0.15 0.08 56 1016.6
20260502233044 45 0 0.0 1.7 0.00 0.15 0.08 56 1016.4
20260502231544 45 0 0.0 1.7 0.00 0.15 0.08 55 1016.5
20260502230045 44 0 0.0 1.7 0.00 0.15 0.08 54 1016.5